Regional Weather Roundup
Issued by NWS Mt. Holly, NJ

Current Version | Previous Version | Graphics & Text | Print | Product List | Glossary On
Versions: 1 2 3 4 5 6 7 8 9 10 11 12 13 14 15 16 17 18 19 20 21 22 23 24 25 26 27 28
000
ASUS41 KPHI 210212
RWRPHI

REGIONAL WEATHER ROUNDUP
NATIONAL WEATHER SERVICE MOUNT HOLLY NJ
1000 PM EDT SUN JUN 20 2021

NOTE:  "FAIR" INDICATES FEW OR NO CLOUDS BELOW 12,000 FEET WITH NO
SIGNIFICANT WEATHER AND/OR OBSTRUCTIONS TO VISIBILITY.

 * = STATION DOES NOT REPORT PRECIPITATION (E.G. RAIN, SNOW, ETC.)
        OR FOG.

NJZ015>026-210300-
SOUTHERN NEW JERSEY

CITY           SKY/WX    TMP DP  RH WIND       PRES   REMARKS
POMONA         PTCLDY    76  71  85 S5        29.81R
WILDWOOD*      PTCLDY    74  71  91 S8        29.83R
MILLVILLE      PTCLDY    77  70  79 CALM      29.80S
WRIGHTSTOWN    PTCLDY    76  68  77 S3        29.79R
MOUNT HOLLY    PTCLDY    79  69  71 VRB3      29.79R
TRENTON        PTCLDY    79  71  76 S8        29.78S

$$
NJZ001>014-210300-
NORTHERN NEW JERSEY

CITY           SKY/WX    TMP DP  RH WIND       PRES   REMARKS
SUSSEX         MOCLDY    74  70  87 CALM      29.80R
ANDOVER*         N/A     73  70  90 CALM      29.81R
MORRISTOWN     PTCLDY    77  72  83 CALM      29.80R
NEWARK         MOCLDY    84  68  58 S9        29.78R
TETERBORO      PTCLDY    80  67  64 S7        29.78R
CALDWELL       PTCLDY    83  66  56 CALM      29.79R
SOMERVILLE     PTCLDY    75  68  78 CALM      29.77R
ALLAIRE*       PTCLDY    78  69  73 S6        29.82R

$$
PAZ043-044-047-054-055-060>062-066>071-210300-
EASTERN PENNSYLVANIA

CITY           SKY/WX    TMP DP  RH WIND       PRES   REMARKS
PHILADELPHIA   CLOUDY    81  70  69 S6        29.79R
NORTH PHILA    PTCLDY    81  69  67 CALM      29.80R
BLUE BELL*     PTCLDY    80  70  73 S6        29.81R
QUAKERTOWN*    CLEAR     79  70  73 S5        29.81R
PERKASIE*      FAIR      79  70  73 CALM      29.82R
POTTSTOWN      PTCLDY    79  69  71 S3        29.81R
LANCASTER      PTCLDY    81  69  67 S6        29.79R
COATESVILLE    PTCLDY    77  72  83 CALM      29.82S
WEST CHESTER   FAIR      79  70  73 CALM      29.81S
READING        MOCLDY    82  69  64 S8        29.77R
ALLENTOWN      NOT AVBL
QN CITY/ALNTWN FAIR      81  68  65 SW7       29.81R
MOUNT POCONO   PTCLDY    72  67  84 S5        29.86R
LEHIGHTON      FAIR      73  70  88 CALM      29.81R
WILKES BARRE   PTCLDY    80  68  66 VRB6      29.78S

$$
DEZALL-MDZ008-012-015-019-020-210300-
DELAWARE AND EASTERN MARYLAND

CITY           SKY/WX    TMP DP  RH WIND       PRES   REMARKS
WILMINGTON     PTCLDY    78  71  79 S7        29.80R
DOVER          PTCLDY    77  71  81 S7        29.79R
CHESWOLD       CLEAR     77  73  88 S6        29.81R
GEORGETOWN     PTCLDY    78  70  76 SW7       29.83R
EASTON         CLEAR     79  79 100 S9        29.85R
ABERDEEN       PTCLDY    79  72  79 S9        29.76R
PATUXENT       PTCLDY    79  72  79 S8        29.81R
OCEAN CITY     MOCLDY    76  73  91 SW9       29.84R
WALLOPS ISLAND MOCLDY    74  73  97 S9        29.85R
CAMBRIDGE        N/A     77  75  94 S7        29.82R
SALISBURY      MOCLDY    76  70  82 S7        29.83R

$$
PAZ001-021-NYZ056-072-MDZ011-DCZ001-210300-
OTHER NEARBY LOCATIONS

CITY           SKY/WX    TMP DP  RH WIND       PRES   REMARKS
HARRISBURG     CLOUDY    82  70  66 S5        29.76S
STATE COLLEGE  PTCLDY    77  68  73 S9        29.79R
WILLIAMSPORT   PTCLDY    79  69  71 VRB3      29.72S
BINGHAMTON     MOCLDY    72  66  81 SW6       29.80R THUNDER
NEW YORK CITY  PTCLDY    80  67  64 CALM      29.82R
BALTIMORE      MOCLDY    82  70  66 S3        29.78R
WASHINGTON DC  PTCLDY    81  70  69 S12       29.79S

$$



USA.gov is the U.S. government's official web portal to all federal, state and local government web resources and services.